TimePDT,TemperatureF,Dew PointF,Humidity,Sea Level PressureIn,VisibilityMPH,Wind Direction,Wind SpeedMPH,Gust SpeedMPH,PrecipitationIn,Events,Conditions,WindDirDegrees,DateUTC
12:15 AM,64.4,42.8,45,29.85,10.0,NNE,8.1,-,N/A,,Clear,30,2013-05-06 07:15:00
12:35 AM,64.4,42.8,45,29.85,10.0,NE,9.2,-,N/A,,Clear,40,2013-05-06 07:35:00
12:55 AM,64.4,42.8,45,29.86,10.0,NNE,8.1,-,N/A,,Clear,30,2013-05-06 07:55:00
1:15 AM,64.4,42.8,45,29.86,10.0,NNE,8.1,-,N/A,,Clear,30,2013-05-06 08:15:00
1:35 AM,66.2,41.0,40,29.85,10.0,NE,8.1,-,N/A,,Clear,40,2013-05-06 08:35:00
1:55 AM,66.2,41.0,40,29.86,10.0,NE,8.1,-,N/A,,Clear,40,2013-05-06 08:55:00
2:15 AM,55.4,41.0,58,29.86,10.0,Calm,Calm,-,N/A,,Clear,0,2013-05-06 09:15:00
2:35 AM,55.4,42.8,63,29.86,10.0,Calm,Calm,-,N/A,,Clear,0,2013-05-06 09:35:00
2:55 AM,51.8,39.2,62,29.86,10.0,Calm,Calm,-,N/A,,Clear,0,2013-05-06 09:55:00
3:15 AM,51.8,42.8,71,29.86,10.0,Calm,Calm,-,N/A,,Clear,0,2013-05-06 10:15:00
3:35 AM,50.0,41.0,71,29.85,10.0,Calm,Calm,-,N/A,,Clear,0,2013-05-06 10:35:00
3:55 AM,46.4,39.2,76,29.86,10.0,Calm,Calm,-,N/A,,Clear,0,2013-05-06 10:55:00
4:15 AM,46.4,39.2,76,29.86,10.0,North,3.5,-,N/A,,Clear,10,2013-05-06 11:15:00
4:35 AM,46.4,39.2,76,29.86,10.0,Calm,Calm,-,N/A,,Clear,0,2013-05-06 11:35:00
4:55 AM,46.4,39.2,76,29.87,10.0,Calm,Calm,-,N/A,,Clear,0,2013-05-06 11:55:00
5:15 AM,46.4,39.2,76,29.87,10.0,Calm,Calm,-,N/A,,Clear,0,2013-05-06 12:15:00
5:35 AM,46.4,39.2,76,29.88,10.0,Calm,Calm,-,N/A,,Clear,0,2013-05-06 12:35:00
5:55 AM,44.6,39.2,81,29.88,10.0,Calm,Calm,-,N/A,,Clear,0,2013-05-06 12:55:00
6:15 AM,42.8,39.2,87,29.88,10.0,East,3.5,-,N/A,,Clear,100,2013-05-06 13:15:00
6:35 AM,42.8,39.2,87,29.88,10.0,Calm,Calm,-,N/A,,Clear,0,2013-05-06 13:35:00
6:55 AM,46.4,44.6,93,29.88,10.0,Calm,Calm,-,N/A,,Clear,0,2013-05-06 13:55:00
7:15 AM,51.8,46.4,82,29.89,10.0,Calm,Calm,-,N/A,,Clear,0,2013-05-06 14:15:00
7:35 AM,53.6,46.4,77,29.87,10.0,Calm,Calm,-,N/A,,Clear,0,2013-05-06 14:35:00
7:55 AM,59.0,46.4,63,29.88,10.0,Calm,Calm,-,N/A,,Clear,0,2013-05-06 14:55:00
8:15 AM,62.6,44.6,52,29.89,10.0,NNE,3.5,-,N/A,,Clear,20,2013-05-06 15:15:00
8:35 AM,64.4,46.4,52,29.89,10.0,NE,4.6,-,N/A,,Clear,50,2013-05-06 15:35:00
8:55 AM,64.4,46.4,52,29.89,10.0,NE,5.8,-,N/A,,Clear,50,2013-05-06 15:55:00
9:15 AM,66.2,46.4,49,29.89,10.0,NNE,4.6,-,N/A,,Clear,20,2013-05-06 16:15:00
9:35 AM,68.0,46.4,46,29.88,10.0,NNE,4.6,-,N/A,,Clear,30,2013-05-06 16:35:00
9:55 AM,68.0,44.6,43,29.88,10.0,NE,4.6,-,N/A,,Clear,50,2013-05-06 16:55:00
10:15 AM,71.6,46.4,41,29.88,10.0,North,3.5,-,N/A,,Clear,10,2013-05-06 17:15:00
10:35 AM,73.4,46.4,38,29.88,10.0,NNE,4.6,-,N/A,,Clear,20,2013-05-06 17:35:00
10:55 AM,73.4,46.4,38,29.88,10.0,ENE,5.8,-,N/A,,Clear,60,2013-05-06 17:55:00
11:15 AM,73.4,44.6,36,29.88,10.0,NNE,3.5,-,N/A,,Clear,20,2013-05-06 18:15:00
11:35 AM,75.2,44.6,34,29.88,10.0,Calm,Calm,-,N/A,,Clear,0,2013-05-06 18:35:00
11:55 AM,77.0,44.6,32,29.88,10.0,NNE,5.8,-,N/A,,Clear,30,2013-05-06 18:55:00
12:15 PM,78.8,44.6,30,29.87,10.0,NNE,6.9,-,N/A,,Clear,30,2013-05-06 19:15:00
12:35 PM,77.0,44.6,32,29.87,10.0,NE,4.6,-,N/A,,Clear,40,2013-05-06 19:35:00
12:55 PM,78.8,44.6,30,29.86,10.0,Calm,Calm,-,N/A,,Clear,0,2013-05-06 19:55:00
1:15 PM,80.6,44.6,28,29.86,10.0,Calm,Calm,-,N/A,,Clear,0,2013-05-06 20:15:00
1:35 PM,80.6,44.6,28,29.86,10.0,NE,5.8,-,N/A,,Clear,40,2013-05-06 20:35:00
1:55 PM,82.4,44.6,26,29.86,10.0,ENE,4.6,-,N/A,,Clear,60,2013-05-06 20:55:00
2:15 PM,82.4,42.8,25,29.85,10.0,NNW,4.6,-,N/A,,Clear,330,2013-05-06 21:15:00
2:35 PM,82.4,42.8,25,29.85,10.0,East,3.5,-,N/A,,Clear,100,2013-05-06 21:35:00
2:55 PM,84.2,42.8,23,29.84,10.0,Calm,Calm,-,N/A,,Clear,0,2013-05-06 21:55:00
3:15 PM,84.2,42.8,23,29.84,10.0,NE,8.1,-,N/A,,Clear,50,2013-05-06 22:15:00
3:55 PM,84.2,37.4,19,29.82,10.0,NNE,4.6,-,N/A,,Clear,20,2013-05-06 22:55:00
4:15 PM,86.0,37.4,18,29.81,10.0,NNE,3.5,-,N/A,,Clear,30,2013-05-06 23:15:00
4:35 PM,84.2,33.8,16,29.81,10.0,NE,5.8,-,N/A,,Clear,50,2013-05-06 23:35:00
4:55 PM,84.2,37.4,19,29.81,10.0,NNE,3.5,-,N/A,,Clear,30,2013-05-06 23:55:00
5:15 PM,84.2,37.4,19,29.81,10.0,North,4.6,-,N/A,,Clear,360,2013-05-07 00:15:00
5:35 PM,84.2,35.6,18,29.81,10.0,NNE,6.9,-,N/A,,Clear,20,2013-05-07 00:35:00
5:55 PM,84.2,42.8,23,29.81,10.0,SSW,10.4,-,N/A,,Clear,200,2013-05-07 00:55:00
6:15 PM,80.6,48.2,32,29.81,10.0,SSW,11.5,-,N/A,,Clear,210,2013-05-07 01:15:00
6:35 PM,78.8,48.2,34,29.81,10.0,South,8.1,-,N/A,,Clear,190,2013-05-07 01:35:00
6:55 PM,78.8,48.2,34,29.81,10.0,SW,8.1,-,N/A,,Clear,220,2013-05-07 01:55:00
7:15 PM,75.2,50.0,41,29.81,10.0,SSW,9.2,-,N/A,,Clear,210,2013-05-07 02:15:00
7:35 PM,73.4,50.0,44,29.81,10.0,SSW,6.9,-,N/A,,Clear,210,2013-05-07 02:35:00
7:55 PM,71.6,51.8,50,29.81,10.0,South,4.6,-,N/A,,Clear,190,2013-05-07 02:55:00
8:15 PM,66.2,48.2,52,29.82,10.0,South,5.8,-,N/A,,Clear,180,2013-05-07 03:15:00
8:35 PM,64.4,48.2,56,29.82,10.0,South,5.8,-,N/A,,Clear,190,2013-05-07 03:35:00
8:55 PM,62.6,48.2,59,29.83,10.0,South,4.6,-,N/A,,Clear,190,2013-05-07 03:55:00
9:15 PM,57.2,46.4,67,29.84,10.0,SSW,4.6,-,N/A,,Clear,200,2013-05-07 04:15:00
9:35 PM,55.4,46.4,72,29.84,10.0,South,3.5,-,N/A,,Clear,180,2013-05-07 04:35:00
9:55 PM,55.4,46.4,72,29.84,10.0,SSW,3.5,-,N/A,,Clear,200,2013-05-07 04:55:00
10:15 PM,55.4,46.4,72,29.85,10.0,SSW,4.6,-,N/A,,Clear,210,2013-05-07 05:15:00
10:35 PM,55.4,46.4,72,29.86,10.0,South,3.5,-,N/A,,Clear,190,2013-05-07 05:35:00
10:55 PM,51.8,44.6,76,29.86,10.0,South,3.5,-,N/A,,Clear,190,2013-05-07 05:55:00
11:15 PM,51.8,44.6,76,29.87,10.0,Calm,Calm,-,N/A,,Clear,0,2013-05-07 06:15:00
11:35 PM,51.8,44.6,76,29.87,10.0,SSW,3.5,-,N/A,,Clear,200,2013-05-07 06:35:00
11:55 PM,50.0,44.6,82,29.87,10.0,SSW,5.8,-,N/A,,Clear,200,2013-05-07 06:55:00